This demonstration page uses our WeatherBlox Daily Observations layout. Learn more.

Left ArrowRight Arrow

Hourly Observations for August 21, 2015

Temp ( °F °C ) Dew Point ( °F °C ) Humidity (%) Winds ( mph kmh ) Pressure ( in mb ) Visibility ( mi km ) Precip ( " mm )
12:54 am 00:54 Clear 68 20 53 11.7 59 59 S 12 19 29.89 1012 10 16.0934 0 0
1:54 am 01:54 Clear 68 20 52 11.1 57 57 S 13 20 29.89 1012 10 16.0934 0 0
2:54 am 02:54 Clear 67 19.4 52 11.1 59 59 S 12 19 29.88 1012 10 16.0934 0 0
3:54 am 03:54 Clear 65 18.3 52 11.1 63 63 S 12 19 29.88 1012 10 16.0934 0 0
4:54 am 04:54 Clear 65 18.3 52 11.1 63 63 S 15 24 29.89 1012 10 16.0934 0 0
5:54 am 05:54 Clear 64 17.8 53 11.7 68 68 S 16 26 29.88 1012 10 16.0934 0 0
6:54 am 06:54 Sunny 66 18.9 53 11.7 63 63 SSW 15 24 29.89 1012 10 16.0934 0 0
7:54 am 07:54 Sunny 66 18.9 54 12.2 65 65 S 13 20 29.91 1013 10 16.0934 0 0
8:54 am 08:54 Sunny 70 21.1 56 13.3 61 61 S 20 31 29.91 1013 10 16.0934 0 0
9:54 am 09:54 Sunny 73 22.8 57 13.9 57 57 S 18 30 29.9 1013 10 16.0934 0 0
10:54 am 10:54 Sunny 77 25 58 14.4 52 52 S 18 30 29.89 1012 10 16.0934 0 0
11:54 am 11:54 Sunny 79 26.1 59 15 50 50 S 17 28 29.87 1012 10 16.0934 0 0
12:54 pm 12:54 Sunny 82 27.8 62 16.7 51 51 S 22 35 29.86 1011 10 16.0934 0 0
1:54 pm 13:54 Sunny 84 28.9 62 16.7 48 48 S 18 30 29.85 1011 10 16.0934 0 0
2:54 pm 14:54 Sunny 84 28.9 63 17.2 49 49 S 21 33 29.84 1011 10 16.0934 0 0
3:54 pm 15:54 Sunny 86 30 65 18.3 49 49 S 22 35 29.82 1010 10 16.0934 0 0
4:54 pm 16:54 Sunny 85 29.4 64 17.8 50 50 S 17 28 29.81 1009 10 16.0934 0 0
5:54 pm 17:54 Sunny 84 28.9 63 17.2 49 49 S 23 37 29.8 1009 10 16.0934 0 0
6:54 pm 18:54 Sunny 82 27.8 63 17.2 53 53 S 16 26 29.8 1009 10 16.0934 0 0
7:54 pm 19:54 Sunny 79 26.1 63 17.2 58 58 SSE 13 20 29.8 1009 10 16.0934 0 0
8:54 pm 20:54 Clear 76 24.4 65 18.3 69 69 SSE 12 19 29.81 1010 10 16.0934 0 0
9:54 pm 21:54 Clear 75 23.9 67 19.4 76 76 S 16 26 29.83 1010 10 16.0934 0 0
10:54 pm 22:54 Clear 72 22.2 67 19.4 84 84 S 17 28 29.83 1010 10 16.0934 0 0
11:54 pm 23:54 Mostly Clear 71 21.7 67 19.4 87 87 S 15 24 29.83 1010 10 16.0934 0 0

Powered by AerisWeather